STARLINK-11416, 62594

Orbit data source: Space-Track

STARLINK-11416, 62594 is a payload satellite owned by SpaceX/Seattle (US) in LEO that was launched on Mon, 13 Jan 2025 UTC via an FALCON 9 launch vehicle from the Air Force Eastern Test Range (AFETR). Payload-class satellites include a variety of spacecraft equipped with specific instruments for various scientific and technological missions. These include communications satellites like Starlink; space stations such as the ISS; scientific satellites like the Hubble; Earth observation satellites from companies like Planet Labs, Umbra, and HawkEye 360; GPS; miniature CubeSats for education and research; and military/defense satellites.

Loading next visibility...
Identifier
62594, 2025-008H
Orbit
LEO
Last TLE update
6 hours ago
Origin
Manufacturer
SpaceX/Seattle
Mission
Operational Commercial Communications
Bus & Motor
STARLINK V2M, Unknown motor
Mass
730 kg wet, ~700 kg dry
Launch date (UTC)
2025-01-13 (6 months ago)
Launch vehicle
FALCON 9
Launch site
Air Force Eastern Test Range (AFETR)
Object type
Payload
Rocket body
Debris
Shape & HBR
Box + 2 Pan, 29 m
Radar Cross Section
36.964 m², Large (>1 m²)

Expand to show TLE details & history

TLE from 6 hours ago
0 STARLINK-11416
1 62594U 25008H   25182.19352477  .00160347  00000-0  11764-2 0  9999
2 62594  42.9997 201.7762 0002614 286.7848  73.2733 15.71879785 27506
Epoch: 2025-07-01T04:38Z
TLE epoch observation values (Epoch: 2025-07-01T04:38:40.54Z)
Latitude
-0.00001°
Longitude
-147.38522°
Altitude
352.79 km
Speed
7.7 km/s
True Right ascension
13h 27m 06s
True Declination
0° 00' 00"
Sunlit
Object was in daylight at epoch
Visualization orbit readout
Latitude
-32.54623°
Longitude
74.10366°
Altitude
361.339 km
Speed
7.693 km/s
Apparent Right ascension
06h 46m 20s
Apparent Declination
-44° 18' 58"
Sunlit
Object is in daylight
Visualization observer readout
Local Sidereal Time
21:50:27
Azimuth
112.858° SE
Elevation
-56.024°
Doppler factor
1
Orbital elements
Apogee altitude
357.267 km
Perigee altitude
353.747 km
Semi-major axis
6,733.644 km
Eccentricity
0.00026
Inclination
42.9997°
RAAN
201.7762°
Arg. of periapsis
286.7848°
True anomaly
Unknown
Mean anomaly
73.2733°
Eccentric anomaly
Unknown
Mean motion
3.92797 °/min
Orbital period
91.65 mins
BSTAR
0.0011764
Loading maneuver chart data...
Loading SW <> Apogee altitude chart data...
Loading historical data...
Loading historical data...
Loading historical data...
Loading historical data...
Loading historical data...
Loading historical data...
Loading historical data...

STARLINK-11416 Visibility forecast

Observer location: undefined°, undefined°

Span
Click to sort rows by Start time (UTC) header in descending order
Start Az.
Max El. time (UTC)
Max El. Az.
Max El.
End time (UTC)
End Az.
4 mins2025-07-02 05:18:02.906Z239.294° WSW2025-07-02 05:20:02.906Z96.656° ESE39.537°2025-07-02 05:22:02.906Z75.006° E
4 mins2025-07-02 06:54:02.906Z291.351° WNW2025-07-02 06:56:02.906Z19.439° NNE33.603°2025-07-02 06:58:02.906Z67.57° E
4 mins2025-07-02 08:30:02.906Z295.323° NW2025-07-02 08:32:02.906Z27.7° NE41.339°2025-07-02 08:34:02.906Z92.57° ESE
|